Tracking 31027 objects as of 19-Jul-2025
HD Live streaming from Space Station
objects crossing your sky now

COSMOS 2491 DEB

Track COSMOS 2491 DEB now!
10-day predictions


NORAD ID: 45128
Int'l Code: 2013-076Z
Perigee: 753.7 km
Apogee: 785.8 km
Inclination: 81.2 °
Period: 100.1 minutes
Semi major axis: 7140 km
RCS: Unknown
Launch date: December 25, 2013
Source: Commonwealth of Independent States (former USSR) (CIS)
Launch site: PLESETSK MISSILE AND SPACE COMPLEX (PKMTR)

Note: This is SATELLITE DEBRIS
Your satellite tracking list
CZ-2C R/B
Track 1 satellite(s)




NASA's NSSDC Master Catalog

Two Line Element Set (TLE):
1 45128U 13076AA  25197.66060162  .00002773  00000-0  89641-3 0  9998
2 45128  81.2123 343.8982 0022533 166.2337 193.9470 14.38756174 13721
Source of the keplerian elements: AFSPC